UAL1589 KCHS-KCLT

Flight info

Callsign UAL1589
Flight time 0h 43m
Altitude 26000
Route SWPFX3 FILLI DCT FLLGG STOCR4
Aircraft A319/M-FAA/L

Departure

Time 2026-05-05 02:00
Airport Charleston International Airport (KCHS)

Arrival

Time 2026-05-05 02:43
Airport Charlotte Douglas International Airport (KCLT)
Time Latitude Longitude Altitude Speed Heading
2026-05-05 01:39 32.88626 -80.03840 41 ft 0 kts 128°
2026-05-05 01:45 32.88628 -80.03842 41 ft 2 kts 128°
2026-05-05 01:46 32.88636 -80.03854 43 ft 2 kts 129°
2026-05-05 01:46 32.88632 -80.03848 42 ft 2 kts 128°
2026-05-05 01:46 32.88640 -80.03861 40 ft 1 kts 128°
2026-05-05 01:46 32.88648 -80.03875 40 ft 2 kts 124°
2026-05-05 01:47 32.88657 -80.03891 39 ft 2 kts 115°
2026-05-05 01:47 32.88662 -80.03909 39 ft 2 kts 70°
2026-05-05 01:47 32.88657 -80.03921 40 ft 0 kts 38°
2026-05-05 01:50 32.88655 -80.03909 40 ft 1 kts 157°
2026-05-05 01:51 32.88647 -80.03923 39 ft 6 kts 230°
2026-05-05 01:51 32.88623 -80.03991 41 ft 11 kts 274°
2026-05-05 01:51 32.88657 -80.04039 41 ft 8 kts 324°
2026-05-05 01:51 32.88664 -80.04122 40 ft 16 kts 238°
2026-05-05 01:52 32.88575 -80.04254 39 ft 20 kts 231°
2026-05-05 01:52 32.88504 -80.04364 41 ft 21 kts 232°
2026-05-05 01:52 32.88489 -80.04535 41 ft 19 kts 291°
2026-05-05 01:52 32.88568 -80.04634 41 ft 19 kts 335°
2026-05-05 01:53 32.88697 -80.04699 41 ft 15 kts 338°
2026-05-05 01:53 32.88807 -80.04667 41 ft 21 kts 25°
2026-05-05 01:53 32.88963 -80.04583 41 ft 25 kts 23°
2026-05-05 01:53 32.89119 -80.04499 41 ft 20 kts 25°
2026-05-05 01:54 32.89241 -80.04464 41 ft 20 kts 359°
2026-05-05 01:54 32.89394 -80.04461 41 ft 18 kts
2026-05-05 01:54 32.89524 -80.04457 41 ft 16 kts
2026-05-05 01:54 32.89611 -80.04455 41 ft 13 kts
2026-05-05 01:55 32.89734 -80.04453 41 ft 22 kts
2026-05-05 01:55 32.89887 -80.04450 41 ft 26 kts
2026-05-05 01:55 32.90085 -80.04446 41 ft 27 kts
2026-05-05 01:55 32.90276 -80.04442 41 ft 21 kts
2026-05-05 01:56 32.90437 -80.04461 41 ft 25 kts 332°
2026-05-05 01:56 32.90586 -80.04571 41 ft 21 kts 327°
2026-05-05 01:56 32.90740 -80.04690 41 ft 32 kts 327°
2026-05-05 01:56 32.90873 -80.04789 41 ft 18 kts 328°
2026-05-05 01:57 32.90977 -80.04867 41 ft 16 kts 327°
2026-05-05 01:57 32.91093 -80.04955 41 ft 24 kts 327°
2026-05-05 01:57 32.91165 -80.05008 41 ft 8 kts 337°
2026-05-05 01:57 32.91211 -80.04967 41 ft 5 kts 59°
2026-05-05 01:58 32.91211 -80.04966 41 ft 0 kts 59°
2026-05-05 01:59 32.91241 -80.04909 41 ft 19 kts 57°
2026-05-05 01:59 32.91284 -80.04803 42 ft 13 kts 105°
2026-05-05 01:59 32.91122 -80.04668 44 ft 68 kts 146°
2026-05-05 02:00 32.90368 -80.04106 167 ft 169 kts 149°
2026-05-05 02:00 32.89309 -80.03277 1071 ft 189 kts 147°
2026-05-05 02:00 32.88202 -80.02343 2134 ft 205 kts 146°
2026-05-05 02:00 32.86962 -80.01289 2914 ft 231 kts 146°
2026-05-05 02:01 32.85671 -79.99974 3753 ft 259 kts 128°
2026-05-05 02:01 32.85005 -79.97944 4879 ft 273 kts 95°
2026-05-05 02:01 32.85358 -79.95725 6156 ft 279 kts 62°
2026-05-05 02:01 32.86664 -79.94071 7407 ft 282 kts 28°
2026-05-05 02:02 32.88544 -79.93448 8654 ft 284 kts
2026-05-05 02:02 32.90520 -79.93273 9905 ft 286 kts
2026-05-05 02:02 32.92574 -79.93145 10698 ft 308 kts
2026-05-05 02:02 32.94801 -79.93021 11272 ft 330 kts
2026-05-05 02:03 32.97142 -79.92882 12118 ft 340 kts
2026-05-05 02:03 32.99533 -79.92723 13057 ft 346 kts
2026-05-05 02:03 33.01940 -79.92546 13964 ft 351 kts
2026-05-05 02:03 33.04367 -79.92356 14842 ft 356 kts
2026-05-05 02:04 33.06850 -79.92156 15706 ft 360 kts
2026-05-05 02:04 33.09373 -79.91951 16547 ft 365 kts
2026-05-05 02:04 33.11929 -79.91747 17360 ft 370 kts
2026-05-05 02:04 33.14517 -79.91546 18157 ft 374 kts
2026-05-05 02:05 33.17136 -79.91345 18938 ft 379 kts
2026-05-05 02:05 33.19750 -79.91148 19697 ft 383 kts
2026-05-05 02:05 33.22428 -79.90942 20448 ft 387 kts
2026-05-05 02:05 33.25135 -79.90732 21209 ft 390 kts
2026-05-05 02:06 33.27827 -79.90522 22118 ft 388 kts
2026-05-05 02:06 33.30542 -79.90311 22863 ft 391 kts
2026-05-05 02:06 33.33264 -79.90099 23547 ft 394 kts
2026-05-05 02:06 33.35985 -79.89885 24194 ft 398 kts
2026-05-05 02:07 33.38762 -79.89556 24808 ft 403 kts
2026-05-05 02:07 33.41523 -79.88826 25398 ft 407 kts 12°
2026-05-05 02:07 33.44292 -79.88055 25857 ft 410 kts 12°
2026-05-05 02:07 33.47042 -79.87292 25982 ft 408 kts 12°
2026-05-05 02:08 33.49779 -79.86529 26010 ft 400 kts 12°
2026-05-05 02:08 33.52487 -79.85775 26008 ft 398 kts 12°
2026-05-05 02:08 33.55185 -79.85027 26009 ft 397 kts 12°
2026-05-05 02:08 33.57879 -79.84282 26010 ft 396 kts 12°
2026-05-05 02:09 33.60570 -79.83538 26009 ft 396 kts 12°
2026-05-05 02:09 33.63254 -79.82793 26009 ft 396 kts 12°
2026-05-05 02:09 33.65906 -79.82056 26009 ft 396 kts 12°
2026-05-05 02:09 33.68597 -79.81306 26009 ft 396 kts 12°
2026-05-05 02:10 33.71285 -79.80558 26008 ft 396 kts 12°
2026-05-05 02:10 33.73974 -79.79808 26008 ft 396 kts 12°
2026-05-05 02:10 33.76667 -79.79054 26007 ft 396 kts 12°
2026-05-05 02:10 33.79362 -79.78353 26006 ft 395 kts
2026-05-05 02:11 33.82106 -79.78257 26005 ft 394 kts 354°
2026-05-05 02:11 33.84752 -79.78916 26004 ft 392 kts 340°
2026-05-05 02:11 33.87221 -79.80292 26003 ft 391 kts 327°
2026-05-05 02:11 33.89371 -79.82297 25750 ft 393 kts 314°
2026-05-05 02:12 33.91161 -79.84805 25496 ft 394 kts 308°
2026-05-05 02:12 33.94619 -79.89906 24829 ft 393 kts 309°
2026-05-05 02:12 33.96339 -79.92432 24285 ft 396 kts 309°
2026-05-05 02:13 33.98091 -79.94996 23675 ft 398 kts 308°
2026-05-05 02:13 33.99972 -79.97420 23281 ft 394 kts 315°
2026-05-05 02:13 34.02164 -79.99341 22853 ft 387 kts 327°
2026-05-05 02:13 34.04535 -80.00777 22579 ft 376 kts 330°
2026-05-05 02:14 34.06872 -80.02144 22313 ft 371 kts 330°
2026-05-05 02:14 34.09182 -80.03505 22071 ft 367 kts 330°
2026-05-05 02:14 34.11472 -80.04862 22067 ft 366 kts 330°
2026-05-05 02:14 34.13736 -80.06206 22063 ft 367 kts 330°
2026-05-05 02:15 34.16036 -80.07565 22068 ft 367 kts 330°
2026-05-05 02:15 34.18328 -80.08919 22056 ft 366 kts 330°
2026-05-05 02:15 34.20623 -80.10274 22065 ft 366 kts 330°
2026-05-05 02:15 34.22919 -80.11629 22068 ft 366 kts 330°
2026-05-05 02:16 34.25185 -80.12967 22063 ft 366 kts 330°
2026-05-05 02:16 34.27481 -80.14323 22063 ft 367 kts 330°
2026-05-05 02:16 34.29772 -80.15680 22077 ft 367 kts 330°
2026-05-05 02:16 34.32064 -80.17039 22076 ft 367 kts 330°
2026-05-05 02:17 34.34367 -80.18405 22088 ft 368 kts 330°
2026-05-05 02:17 34.36670 -80.19774 22089 ft 368 kts 330°
2026-05-05 02:17 34.38973 -80.21141 22088 ft 368 kts 330°
2026-05-05 02:17 34.41253 -80.22492 22078 ft 368 kts 330°
2026-05-05 02:18 34.43562 -80.23862 22096 ft 368 kts 330°
2026-05-05 02:18 34.45869 -80.25233 21856 ft 368 kts 330°
2026-05-05 02:18 34.48165 -80.26601 21427 ft 367 kts 330°
2026-05-05 02:18 34.50431 -80.27952 20932 ft 367 kts 330°
2026-05-05 02:19 34.52729 -80.29323 20455 ft 366 kts 330°
2026-05-05 02:19 34.55007 -80.30679 20074 ft 362 kts 330°
2026-05-05 02:19 34.57249 -80.32013 19648 ft 354 kts 330°
2026-05-05 02:19 34.59459 -80.33330 19025 ft 352 kts 330°
2026-05-05 02:20 34.61472 -80.34889 18499 ft 344 kts 319°
2026-05-05 02:20 34.63338 -80.36693 17927 ft 339 kts 319°
2026-05-05 02:20 34.65181 -80.38473 17458 ft 336 kts 319°
2026-05-05 02:20 34.67014 -80.40238 16998 ft 335 kts 319°
2026-05-05 02:21 34.68840 -80.41991 16541 ft 333 kts 319°
2026-05-05 02:21 34.70655 -80.43736 16086 ft 332 kts 319°
2026-05-05 02:21 34.72439 -80.45464 15600 ft 332 kts 319°
2026-05-05 02:21 34.74240 -80.47233 15083 ft 333 kts 319°
2026-05-05 02:22 34.76034 -80.49003 14682 ft 330 kts 319°
2026-05-05 02:22 34.77821 -80.50764 14174 ft 328 kts 319°
2026-05-05 02:22 34.79590 -80.52509 13544 ft 326 kts 319°
2026-05-05 02:22 34.81335 -80.54234 13166 ft 316 kts 319°
2026-05-05 02:23 34.83004 -80.55880 12971 ft 303 kts 319°
2026-05-05 02:23 34.84612 -80.57466 12682 ft 299 kts 319°
2026-05-05 02:23 34.86206 -80.59061 12670 ft 295 kts 318°
2026-05-05 02:23 34.87780 -80.60668 12610 ft 296 kts 318°
2026-05-05 02:24 34.89349 -80.62281 12443 ft 294 kts 317°
2026-05-05 02:24 34.90909 -80.63886 12260 ft 293 kts 317°
2026-05-05 02:24 34.92467 -80.65487 12076 ft 292 kts 317°
2026-05-05 02:24 34.94025 -80.67085 11881 ft 292 kts 317°
2026-05-05 02:25 34.95578 -80.68674 11709 ft 291 kts 317°
2026-05-05 02:25 34.97131 -80.70264 11527 ft 291 kts 317°
2026-05-05 02:25 34.98661 -80.71831 11340 ft 290 kts 317°
2026-05-05 02:25 35.00210 -80.73413 11159 ft 290 kts 317°
2026-05-05 02:26 35.01754 -80.74993 10980 ft 289 kts 317°
2026-05-05 02:26 35.03283 -80.76591 10842 ft 288 kts 316°
2026-05-05 02:26 35.04797 -80.78201 10709 ft 288 kts 316°
2026-05-05 02:26 35.06284 -80.79793 10577 ft 288 kts 316°
2026-05-05 02:27 35.07889 -80.81248 10445 ft 288 kts 328°
2026-05-05 02:27 35.09757 -80.82097 10319 ft 287 kts 345°
2026-05-05 02:27 35.11732 -80.82343 10198 ft 284 kts 353°
2026-05-05 02:27 35.13698 -80.82504 10000 ft 283 kts 353°
2026-05-05 02:28 35.15684 -80.82674 9620 ft 288 kts 352°
2026-05-05 02:28 35.17698 -80.82847 9232 ft 292 kts 353°
2026-05-05 02:28 35.19713 -80.83020 8852 ft 295 kts 353°
2026-05-05 02:28 35.21776 -80.83197 8470 ft 298 kts 353°
2026-05-05 02:29 35.23852 -80.83370 8091 ft 299 kts 353°
2026-05-05 02:29 35.25910 -80.83530 7745 ft 291 kts 353°
2026-05-05 02:29 35.27903 -80.83691 7458 ft 285 kts 353°
2026-05-05 02:29 35.29881 -80.83868 7165 ft 284 kts 352°
2026-05-05 02:30 35.31847 -80.84059 6891 ft 282 kts 352°
2026-05-05 02:30 35.33790 -80.84263 6548 ft 283 kts 352°
2026-05-05 02:30 35.35759 -80.84478 6173 ft 285 kts 352°
2026-05-05 02:30 35.37743 -80.84696 5789 ft 285 kts 352°
2026-05-05 02:31 35.39712 -80.84909 5417 ft 283 kts 352°
2026-05-05 02:31 35.41676 -80.85122 5047 ft 282 kts 351°
2026-05-05 02:31 35.43638 -80.85336 4673 ft 282 kts 351°
2026-05-05 02:31 35.45558 -80.85546 4295 ft 279 kts 351°
2026-05-05 02:32 35.47472 -80.85754 4030 ft 270 kts 351°
2026-05-05 02:32 35.49277 -80.85947 4004 ft 251 kts 351°
2026-05-05 02:32 35.50960 -80.86126 4011 ft 235 kts 350°
2026-05-05 02:32 35.52564 -80.86307 4007 ft 226 kts 348°
2026-05-05 02:33 35.53943 -80.86955 4008 ft 202 kts 313°
2026-05-05 02:33 35.54621 -80.88270 3999 ft 175 kts 273°
2026-05-05 02:33 35.54413 -80.89638 4000 ft 161 kts 232°
2026-05-05 02:33 35.53517 -80.90367 3998 ft 153 kts 198°
2026-05-05 02:34 35.52500 -80.90633 4001 ft 148 kts 192°
2026-05-05 02:34 35.51484 -80.90833 4007 ft 148 kts 192°
2026-05-05 02:34 35.50477 -80.91019 4012 ft 148 kts 192°
2026-05-05 02:34 35.49484 -80.91202 4043 ft 137 kts 192°
2026-05-05 02:35 35.48579 -80.91365 4009 ft 126 kts 192°
2026-05-05 02:35 35.47751 -80.91511 4005 ft 115 kts 192°
2026-05-05 02:35 35.46969 -80.91644 4003 ft 112 kts 192°
2026-05-05 02:35 35.46121 -80.91795 4038 ft 146 kts 192°
2026-05-05 02:36 35.45079 -80.92001 4002 ft 151 kts 192°
2026-05-05 02:36 35.44060 -80.92200 4009 ft 146 kts 192°
2026-05-05 02:36 35.43057 -80.92387 4011 ft 145 kts 192°
2026-05-05 02:36 35.42057 -80.92573 4015 ft 145 kts 192°
2026-05-05 02:37 35.41066 -80.92761 4003 ft 146 kts 193°
2026-05-05 02:37 35.40105 -80.93174 4017 ft 146 kts 205°
2026-05-05 02:37 35.39496 -80.93531 4007 ft 145 kts 206°
2026-05-05 02:37 35.38592 -80.94076 4004 ft 145 kts 204°
2026-05-05 02:38 35.37620 -80.94418 4014 ft 143 kts 195°
2026-05-05 02:38 35.36696 -80.94642 4015 ft 129 kts 191°
2026-05-05 02:38 35.35840 -80.94639 3950 ft 120 kts 180°
2026-05-05 02:38 35.34965 -80.94538 3587 ft 132 kts 182°
2026-05-05 02:39 35.33720 -80.94481 3081 ft 140 kts 185°
2026-05-05 02:39 35.33060 -80.94477 2848 ft 141 kts 184°
2026-05-05 02:39 35.32135 -80.94420 2671 ft 128 kts 184°
2026-05-05 02:39 35.31280 -80.94357 2507 ft 118 kts 184°
2026-05-05 02:40 35.30221 -80.94274 2315 ft 113 kts 182°
2026-05-05 02:40 35.29702 -80.94232 2208 ft 112 kts 182°
2026-05-05 02:40 35.28932 -80.94168 2064 ft 110 kts 182°
2026-05-05 02:40 35.28165 -80.94103 1916 ft 109 kts 182°
2026-05-05 02:41 35.27413 -80.94040 1778 ft 107 kts 181°
2026-05-05 02:41 35.26659 -80.93975 1628 ft 110 kts 180°
2026-05-05 02:41 35.25893 -80.93910 1468 ft 113 kts 179°
2026-05-05 02:41 35.25089 -80.93841 1317 ft 117 kts 178°
2026-05-05 02:42 35.24271 -80.93771 1157 ft 119 kts 178°
2026-05-05 02:42 35.23472 -80.93702 1005 ft 119 kts 177°
2026-05-05 02:42 35.22622 -80.93629 839 ft 123 kts 177°
2026-05-05 02:42 35.21778 -80.93556 728 ft 118 kts 176°
2026-05-05 02:43 35.21029 -80.93487 717 ft 74 kts 176°
2026-05-05 02:43 35.20760 -80.93466 720 ft 30 kts 176°
2026-05-05 02:43 35.20536 -80.93507 717 ft 22 kts 212°
2026-05-05 02:43 35.20553 -80.93597 714 ft 10 kts
2026-05-05 02:44 35.20895 -80.93610 717 ft 68 kts 355°
2026-05-05 02:44 35.21409 -80.93660 723 ft 70 kts 356°
2026-05-05 02:44 35.21782 -80.93693 727 ft 20 kts 355°
2026-05-05 02:44 35.21852 -80.93701 727 ft 6 kts 354°
2026-05-05 02:45 35.21867 -80.93702 726 ft 0 kts 356°
2026-05-05 02:46 35.21887 -80.93704 727 ft 7 kts 356°
2026-05-05 02:46 35.21931 -80.93753 727 ft 12 kts 260°
2026-05-05 02:46 35.21865 -80.93864 727 ft 16 kts 233°
2026-05-05 02:46 35.21839 -80.94005 726 ft 21 kts 268°
2026-05-05 02:47 35.21839 -80.94119 724 ft 5 kts 250°
2026-05-05 02:47 35.21821 -80.94175 724 ft 3 kts 252°
2026-05-05 02:47 35.21821 -80.94176 724 ft 0 kts 252°